GW5467 Weather Reports


Display with metric or nautical units.
time (UTC)temp
F
wind
direction
speed
MPH
gust
MPH
rain 1hr
in
rain 24hr
in
rain mn
in
humidity
%
barometer
mb
20260505111426 35 351 6.0 6.0 0.00 0.00 0.00 70 1019.0
20260505110922 36 0 6.0 8.0 0.00 0.00 0.00 70 1018.7
20260505110419 36 3 8.0 9.0 0.00 0.00 0.00 69 1018.8
20260505101850 38 5 9.0 11.0 0.00 0.00 0.00 60 1019.0
20260505101345 38 345 8.0 10.0 0.00 0.00 0.00 60 1018.7
20260505100841 38 4 7.0 9.0 0.00 0.00 0.00 58 1018.7
20260505100338 39 9 5.0 7.0 0.00 0.00 0.00 58 1018.5
20260505095833 39 3 5.0 7.0 0.00 0.00 0.00 58 1018.8
20260505095331 39 357 9.0 10.0 0.00 0.00 0.00 58 1018.6
20260505094827 39 341 8.0 9.0 0.00 0.00 0.00 59 1018.4
20260505094324 39 6 6.0 8.0 0.00 0.00 0.00 59 1018.6
20260505093819 39 348 5.0 7.0 0.00 0.00 0.00 58 1018.5
20260505093318 39 334 6.0 8.0 0.00 0.00 0.00 58 1018.3
20260505092814 39 4 8.0 10.0 0.00 0.00 0.00 58 1018.6
20260505092313 39 23 8.0 10.0 0.00 0.00 0.00 57 1018.6
20260505091810 39 33 4.0 7.0 0.00 0.00 0.00 56 1018.3
20260505091308 39 2 7.0 9.0 0.00 0.00 0.00 55 1018.6
20260505090805 39 358 4.0 6.0 0.00 0.00 0.00 55 1018.5
20260505090303 39 19 4.0 4.0 0.00 0.00 0.00 55 1018.2
20260505085800 39 11 4.0 4.0 0.00 0.00 0.00 56 1018.4
20260505085258 39 14 2.0 2.0 0.00 0.00 0.00 57 1018.3
20260505084756 39 349 2.0 2.0 0.00 0.00 0.00 57 1018.3
20260505084255 39 336 3.0 3.0 0.00 0.00 0.00 56 1018.4
20260505083751 39 340 4.0 4.0 0.00 0.00 0.00 56 1018.3
20260505083248 39 328 2.0 3.0 0.00 0.00 0.00 55 1018.2
20260505082744 39 342 3.0 3.0 0.00 0.00 0.00 56 1018.3
20260505082241 40 1 4.0 4.0 0.00 0.00 0.00 55 1018.3
20260505081737 40 8 4.0 6.0 0.00 0.00 0.00 55 1018.4
20260505081235 39 359 4.0 4.0 0.00 0.00 0.00 55 1018.2
20260505080731 39 11 3.0 3.0 0.00 0.00 0.00 55 1018.3
20260505080226 40 343 4.0 4.0 0.00 0.00 0.00 54 1018.3
20260505075722 40 346 5.0 6.0 0.00 0.00 0.00 54 1018.4
20260505075220 40 340 4.0 4.0 0.00 0.00 0.00 54 1018.3
20260505074717 40 348 3.0 3.0 0.00 0.00 0.00 54 1018.2
20260505074214 40 3 4.0 4.0 0.00 0.00 0.00 54 1018.2
20260505073712 40 11 3.0 3.0 0.00 0.00 0.00 53 1018.2
20260505073210 40 0 4.0 6.0 0.00 0.00 0.00 53 1018.2
20260505072705 40 9 6.0 7.0 0.00 0.00 0.00 53 1018.0
20260505072202 41 340 6.0 7.0 0.00 0.00 0.00 53 1018.1
20260505071657 41 359 8.0 9.0 0.00 0.00 0.00 53 1018.2
20260505071155 41 5 7.0 8.0 0.00 0.00 0.00 52 1018.2
20260505070653 41 7 13.0 15.0 0.00 0.00 0.00 51 1018.2
20260505070149 41 352 8.0 10.0 0.00 0.00 0.00 50 1018.1
20260505065644 41 348 7.0 9.0 0.00 0.00 0.00 49 1018.3
20260505065142 41 27 6.0 8.0 0.00 0.00 0.00 49 1018.3
20260505064638 41 14 6.0 8.0 0.00 0.00 0.00 48 1018.2
20260505064136 41 10 4.0 7.0 0.00 0.00 0.00 48 1018.1
20260505063634 39 18 4.0 4.0 0.00 0.00 0.00 51 1018.1
20260505063130 38 24 4.0 4.0 0.00 0.00 0.00 52 1018.2
20260505062626 36 57 3.0 3.0 0.00 0.00 0.00 54 1018.0
20260505062123 37 5 3.0 4.0 0.00 0.00 0.00 53 1018.2
20260505061620 37 29 2.0 6.0 0.00 0.00 0.00 52 1018.1
20260505061119 38 41 2.0 2.0 0.00 0.00 0.00 52 1018.0
20260505060616 38 57 2.0 3.0 0.00 0.00 0.00 52 1018.0
20260505060113 38 54 4.0 4.0 0.00 0.00 0.00 52 1017.6
20260505055608 36 48 2.0 3.0 0.00 0.00 0.00 54 1017.8
20260505055105 36 271 0.0 0.0 0.00 0.00 0.00 54 1017.7
20260505054602 37 264 0.0 0.0 0.00 0.00 0.00 53 1017.7
20260505054100 38 12 0.0 0.0 0.00 0.00 0.00 52 1017.7
20260505053557 39 8 0.0 0.0 0.00 0.00 0.00 51 1017.8
20260505053053 39 57 2.0 2.0 0.00 0.00 0.00 51 1017.6
20260505052550 38 29 2.0 3.0 0.00 0.00 0.00 52 1017.6
20260505052048 38 85 0.0 0.0 0.00 0.00 0.00 52 1017.6
20260505051544 38 95 2.0 2.0 0.00 0.00 0.00 52 1017.6
20260505051043 39 58 1.0 1.0 0.00 0.00 0.00 52 1017.6
20260505050540 38 66 2.0 2.0 0.00 0.00 0.00 52 1017.4
20260505041508 40 34 4.0 6.0 0.00 0.00 0.00 49 1017.4
20260505041006 40 43 6.0 8.0 0.00 0.00 0.00 48 1017.4
20260505040503 40 27 7.0 8.0 0.00 0.00 0.00 48 1017.3
20260505040000 40 21 5.0 7.0 0.00 0.00 0.00 48 1017.2
20260505035455 40 52 3.0 4.0 0.00 0.00 0.00 48 1017.1
20260505034953 40 63 4.0 4.0 0.00 0.00 0.00 48 1017.1
20260505034449 41 31 4.0 6.0 0.00 0.00 0.00 47 1017.1
20260505033947 41 21 4.0 6.0 0.00 0.00 0.00 47 1017.1
20260505033443 42 21 4.0 6.0 0.00 0.00 0.00 46 1017.0
20260505032942 42 25 5.0 8.0 0.00 0.00 0.00 46 1016.9
20260505032439 42 50 8.0 9.0 0.00 0.00 0.00 45 1016.5
20260505031935 42 65 6.0 8.0 0.00 0.00 0.00 45 1016.9
20260505031432 43 43 4.0 6.0 0.00 0.00 0.00 44 1016.7
20260505030929 44 41 8.0 9.0 0.00 0.00 0.00 44 1017.0
20260505030424 44 33 10.0 13.0 0.00 0.00 0.00 43 1016.5
20260505025920 43 26 8.0 10.0 0.00 0.00 0.00 43 1016.6
20260505025418 44 72 4.0 6.0 0.00 0.00 0.00 43 1016.4
20260505024917 44 43 6.0 7.0 0.00 0.00 0.00 42 1016.2
20260505024414 45 26 8.0 11.0 0.00 0.00 0.00 41 1016.4
20260505023910 46 24 10.0 11.0 0.00 0.00 0.00 41 1016.2
20260505023408 46 18 11.0 15.0 0.00 0.00 0.00 40 1016.2
20260505022905 46 19 12.0 16.0 0.00 0.00 0.00 39 1016.3
20260505022402 47 26 10.0 13.0 0.00 0.00 0.00 39 1016.1
20260505021859 47 66 11.0 13.0 0.00 0.00 0.00 38 1015.9
20260505021355 48 69 11.0 14.0 0.00 0.00 0.00 36 1015.9
20260505020851 49 73 4.0 6.0 0.00 0.00 0.00 33 1015.7
20260505020347 50 16 9.0 11.0 0.00 0.00 0.00 29 1015.7
20260505015844 50 34 11.0 13.0 0.00 0.00 0.00 29 1015.7
20260505015341 50 358 11.0 15.0 0.00 0.00 0.00 29 1015.7
20260505014838 51 345 14.0 17.0 0.00 0.00 0.00 28 1016.0
20260505014335 51 6 11.0 15.0 0.00 0.00 0.00 27 1015.5
20260505013832 51 358 17.0 19.0 0.00 0.00 0.00 27 1015.5
20260505013329 51 32 12.0 15.0 0.00 0.00 0.00 27 1015.5
20260505012827 52 353 9.0 13.0 0.00 0.00 0.00 26 1015.4
20260505012325 52 0 10.0 14.0 0.00 0.00 0.00 26 1015.2
20260505011820 52 0 13.0 15.0 0.00 0.00 0.00 25 1015.3
20260505011318 53 350 7.0 9.0 0.00 0.00 0.00 24 1015.2
20260505010813 53 7 8.0 10.0 0.00 0.00 0.00 24 1015.5
20260505010310 53 12 16.0 18.0 0.00 0.00 0.00 23 1015.3
20260505005806 53 25 11.0 11.0 0.00 0.00 0.00 23 1015.2
20260505005304 53 337 17.0 19.0 0.00 0.00 0.00 23 1015.1
20260505004800 53 15 15.0 16.0 0.00 0.00 0.00 23 1015.2
20260505004256 53 344 11.0 15.0 0.00 0.00 0.00 24 1015.3
20260505003754 54 22 10.0 14.0 0.00 0.00 0.00 23 1015.2
20260505003251 54 326 14.0 18.0 0.00 0.00 0.00 23 1015.2
20260505002747 54 331 13.0 14.0 0.00 0.00 0.00 22 1015.1
20260505002245 54 344 16.0 18.0 0.00 0.00 0.00 22 1015.2
20260505001742 53 358 13.0 17.0 0.00 0.00 0.00 23 1015.3
20260505001240 55 334 16.0 19.0 0.00 0.00 0.00 23 1015.1
20260505000737 54 340 16.0 17.0 0.00 0.00 0.00 22 1015.3
20260505000235 55 358 15.0 21.0 0.00 0.00 0.00 23 1015.3
20260504235731 55 20 17.0 21.0 0.00 0.00 0.00 22 1015.2
20260504235227 54 299 15.0 18.0 0.00 0.00 0.00 23 1015.0
20260504234725 55 4 11.0 14.0 0.00 0.00 0.00 24 1015.1
20260504234222 55 346 15.0 17.0 0.00 0.00 0.00 24 1015.1
20260504233718 54 357 17.0 22.0 0.00 0.00 0.00 24 1014.6
20260504233214 54 328 16.0 22.0 0.00 0.00 0.00 25 1015.2
20260504232711 55 350 19.0 24.0 0.00 0.00 0.00 25 1015.1
20260504232208 55 344 15.0 18.0 0.00 0.00 0.00 25 1015.3
20260504231705 54 5 10.0 13.0 0.00 0.00 0.00 26 1015.1
20260504231201 54 348 14.0 19.0 0.00 0.00 0.00 26 1015.0
20260504230657 55 358 22.0 27.0 0.00 0.00 0.00 24 1015.0
20260504230156 55 357 16.0 19.0 0.00 0.00 0.00 25 1015.2
20260504225654 55 351 19.0 22.0 0.00 0.00 0.00 25 1015.1
20260504225150 55 349 19.0 22.0 0.00 0.00 0.00 25 1015.1
20260504224647 56 11 15.0 19.0 0.00 0.00 0.00 24 1015.1
20260504224144 55 339 17.0 22.0 0.00 0.00 0.00 25 1015.1
20260504223641 55 326 16.0 18.0 0.00 0.00 0.00 26 1015.3
20260504223136 55 328 19.0 23.0 0.00 0.00 0.00 27 1015.1
20260504222634 55 31 10.0 15.0 0.00 0.00 0.00 27 1015.1
20260504222131 55 345 12.0 15.0 0.00 0.00 0.00 29 1015.4
20260504221628 55 20 15.0 21.0 0.00 0.00 0.00 29 1015.0
20260504221125 55 327 14.0 16.0 0.00 0.00 0.00 29 1015.2
20260504220621 55 331 21.0 24.0 0.00 0.00 0.00 29 1015.2
20260504220119 55 335 20.0 29.0 0.00 0.00 0.00 30 1015.2
20260504215615 55 343 13.0 16.0 0.00 0.00 0.00 30 1015.3
20260504215113 55 354 17.0 19.0 0.00 0.00 0.00 31 1015.4
20260504214608 52 330 20.0 24.0 0.00 0.00 0.00 31 1015.2
20260504214105 51 331 11.0 15.0 0.00 0.00 0.00 33 1015.4
20260504213601 52 17 12.0 14.0 0.00 0.00 0.00 32 1015.6
20260504213058 51 21 14.0 16.0 0.00 0.00 0.00 32 1015.5
20260504212554 52 336 13.0 17.0 0.00 0.00 0.00 31 1015.6
20260504212052 53 359 21.0 24.0 0.00 0.00 0.00 31 1015.7
20260504211548 52 22 12.0 16.0 0.00 0.00 0.00 31 1015.9
20260504211045 52 357 15.0 17.0 0.00 0.00 0.00 32 1015.9
20260504210542 53 340 18.0 21.0 0.00 0.00 0.00 31 1016.1
20260504210039 53 8 16.0 18.0 0.00 0.00 0.00 31 1015.7
20260504205537 54 340 17.0 22.0 0.00 0.00 0.00 31 1015.9
20260504205035 53 336 15.0 17.0 0.00 0.00 0.00 33 1015.9
20260504204532 53 343 16.0 24.0 0.00 0.00 0.00 32 1015.9
20260504204032 53 342 12.0 14.0 0.00 0.00 0.00 33 1016.0
20260504203529 53 7 14.0 18.0 0.00 0.00 0.00 34 1015.9
20260504203026 53 0 20.0 23.0 0.00 0.00 0.00 35 1015.9
20260504202521 54 358 13.0 17.0 0.00 0.00 0.00 34 1015.9
20260504202019 53 344 13.0 16.0 0.00 0.00 0.00 35 1015.7
20260504201516 53 336 14.0 17.0 0.00 0.00 0.00 34 1015.5
20260504201014 54 333 17.0 24.0 0.00 0.00 0.00 32 1015.5
20260504200510 54 336 12.0 15.0 0.00 0.00 0.00 34 1015.6
20260504200007 52 3 9.0 11.0 0.00 0.00 0.00 37 1015.4
20260504195503 54 324 11.0 11.0 0.00 0.00 0.00 33 1015.4
20260504194959 53 357 16.0 19.0 0.00 0.00 0.00 35 1015.6
20260504194455 53 341 20.0 22.0 0.00 0.00 0.00 34 1015.6
20260504193951 54 342 18.0 22.0 0.00 0.00 0.00 34 1015.6
20260504193449 53 319 19.0 22.0 0.00 0.00 0.00 33 1015.5
20260504192947 54 340 15.0 17.0 0.00 0.00 0.00 34 1015.6
20260504192444 54 344 18.0 21.0 0.00 0.00 0.00 33 1015.5
20260504191943 55 350 15.0 17.0 0.00 0.00 0.00 33 1015.6
20260504191441 55 0 13.0 16.0 0.00 0.00 0.00 33 1015.5
20260504190935 56 340 17.0 21.0 0.00 0.00 0.00 33 1015.6
20260504190431 56 327 11.0 14.0 0.00 0.00 0.00 34 1015.7
20260504185928 55 346 15.0 17.0 0.00 0.00 0.00 33 1015.6
20260504185425 55 327 24.0 26.0 0.00 0.00 0.00 32 1015.4
20260504184921 55 14 18.0 23.0 0.00 0.00 0.00 33 1015.4
20260504184417 55 348 20.0 23.0 0.00 0.00 0.00 33 1015.5
20260504183913 54 331 17.0 18.0 0.00 0.00 0.00 34 1015.4
20260504183411 56 326 22.0 26.0 0.00 0.00 0.00 33 1015.3
20260504182908 56 331 25.0 30.0 0.00 0.00 0.00 33 1015.6
20260504182405 54 356 13.0 21.0 0.00 0.00 0.00 35 1015.5
20260504181902 54 235 14.0 18.0 0.00 0.00 0.00 34 1015.4
20260504181359 54 343 17.0 23.0 0.00 0.00 0.00 35 1015.4
20260504180858 53 326 18.0 23.0 0.00 0.00 0.00 35 1015.7
20260504180356 54 5 14.0 21.0 0.00 0.00 0.00 35 1015.6
20260504175854 54 4 14.0 17.0 0.00 0.00 0.00 36 1015.6
20260504175350 55 327 16.0 18.0 0.00 0.00 0.00 35 1015.5
20260504174849 53 337 14.0 16.0 0.00 0.00 0.00 36 1015.7
20260504174346 53 351 13.0 16.0 0.00 0.00 0.00 37 1015.9
20260504173843 53 357 15.0 17.0 0.00 0.00 0.00 38 1015.6
20260504173339 54 353 12.0 15.0 0.00 0.00 0.00 36 1015.9
20260504172836 52 343 15.0 16.0 0.00 0.00 0.00 38 1015.9
20260504172333 53 328 12.0 17.0 0.00 0.00 0.00 38 1015.9
20260504171829 53 345 19.0 19.0 0.00 0.00 0.00 38 1016.0
20260504171326 53 328 12.0 15.0 0.00 0.00 0.00 39 1015.7
20260504170824 54 0 14.0 17.0 0.00 0.00 0.00 40 1015.9
20260504170320 52 343 11.0 13.0 0.00 0.00 0.00 42 1015.6
20260504160238 50 319 6.0 8.0 0.00 0.00 0.00 49 1015.6
20260504150704 50 316 6.0 8.0 0.00 0.00 0.00 51 1016.0
20260504150201 50 315 8.0 10.0 0.00 0.00 0.00 51 1016.1
20260504141130 46 312 7.0 8.0 0.00 0.00 0.00 64 1016.4
20260504140626 46 291 4.0 4.0 0.00 0.00 0.00 65 1016.4
20260504140122 46 285 5.0 6.0 0.00 0.00 0.00 65 1016.2
20260504130550 44 256 3.0 4.0 0.00 0.00 0.00 68 1016.2